Ellsworth AFB, SD

12:57 AM MST on December 13, 2017 (GMT -0700)
Ellsworth Air Force Base

Weather History for KRCA - January, 2012

Change the Weather History Date:

Tuesday, January 10, 2012

  Actual Average Record
Temperature  
Mean Temperature 44 °F -  
Max Temperature 60 °F 34 °F 60 °F (2012)
Min Temperature 29 °F 12 °F -11 °F (1997)
Degree Days  
Heating Degree Days 20    
Moisture  
Dew Point 28 °F    
Average Humidity 75    
Maximum Humidity 100    
Minimum Humidity 27    
Precipitation  
Precipitation 0.01 in - - ()
Sea Level Pressure  
Sea Level Pressure 29.87 in    
Wind  
Wind Speed 16 mph (NW)    
Max Wind Speed 38 mph    
Max Gust Speed 48 mph    
Visibility 7 miles    
Events Rain , Snow    
Averages and records for this station are not official NWS values.
T = Trace of Precipitation, MM = Missing Value Source: NWS Daily Summary

Daily Weather History Graph

Daily Weather History Graph

Search for Another Location

Airport or City:

Trip Planner

Search our weather history database for the weather conditions in past years. The results will help you decide how hot, cold, wet, or windy it might be!

Date:

Astronomy

Jan. 10, 2012 Rise Set
Actual Time 7:26 AM MST 4:33 PM MST
Civil Twilight 6:54 AM MST 5:05 PM MST
Nautical Twilight 6:17 AM MST 5:41 PM MST
Astronomical Twilight 5:43 AM MST 6:16 PM MST
Moon 6:32 PM MST (1/10) 8:01 AM MST (1/10)
Length of Visible Light 10h 11m
Length of Day
9h 06m
Full, 98% of the Moon is Illuminated
Jan 10
Full
Jan 16
Last Quarter
Jan 23
New
Jan 30
First Quarter
Feb 7
Full

Hourly Weather History & Observations

Time (MST) Temp. Windchill Dew Point Humidity Pressure Visibility Wind Dir Wind Speed Gust Speed Precip Events Conditions
12:55 AM 32.9 °F 26.7 °F 22.8 °F 66% 30.00 in 10.0 mi West 6.9 mph - N/A   Clear
1:55 AM 33.4 °F 26.6 °F 23.4 °F 67% 29.99 in 10.0 mi West 8.1 mph - N/A   Clear
2:55 AM 33.6 °F 25.0 °F 24.3 °F 69% 29.97 in 10.0 mi West 11.5 mph - N/A   Clear
3:55 AM 32.4 °F 26.0 °F 22.8 °F 68% 29.96 in 10.0 mi West 6.9 mph - N/A   Clear
4:55 AM 34.2 °F 27.5 °F 23.0 °F 64% 29.96 in 10.0 mi WNW 8.1 mph - N/A   Clear
5:55 AM 32.9 °F 27.5 °F 22.6 °F 66% 29.97 in 10.0 mi West 5.8 mph - N/A   Clear
6:55 AM 29.3 °F 22.3 °F 21.9 °F 74% 29.95 in 10.0 mi West 6.9 mph - N/A   Clear
7:55 AM 35.6 °F 29.9 °F 23.4 °F 61% 29.94 in 10.0 mi WSW 6.9 mph - N/A   Clear
8:55 AM 41.5 °F 39.6 °F 26.1 °F 54% 29.90 in 10.0 mi WNW 3.5 mph - N/A   Clear
9:55 AM 47.5 °F - 27.3 °F 46% 29.89 in 10.0 mi WSW 6.9 mph - N/A   Clear
10:55 AM 55.0 °F - 25.5 °F 32% 29.83 in 10.0 mi SSW 10.4 mph - N/A   Clear
11:55 AM 56.3 °F - 24.6 °F 29% 29.78 in 10.0 mi South 12.7 mph - N/A   Clear
12:55 PM 58.1 °F - 25.5 °F 29% 29.73 in 10.0 mi South 10.4 mph - N/A   Clear
1:55 PM 60.1 °F - 25.7 °F 27% 29.68 in 10.0 mi South 11.5 mph - N/A   Clear
2:55 PM 59.7 °F - 27.1 °F 29% 29.66 in 10.0 mi SE 9.2 mph - N/A   Partly Cloudy
3:55 PM 53.8 °F - 27.7 °F 37% 29.67 in 10.0 mi ESE 8.1 mph - N/A   Partly Cloudy
4:55 PM 48.4 °F - 27.0 °F 43% 29.69 in 10.0 mi NNE 9.2 mph - N/A   Partly Cloudy
5:55 PM 48.2 °F - 26.2 °F 42% 29.73 in 10.0 mi NNW 21.9 mph 27.6 mph N/A   Mostly Cloudy
6:55 PM 45.9 °F 37.6 °F 30.0 °F 54% 29.76 in 10.0 mi NNW 23.0 mph 33.4 mph N/A   Mostly Cloudy
7:55 PM 41.4 °F 29.8 °F 35.1 °F 78% 29.77 in 10.0 mi NNW 33.4 mph 48.3 mph N/A   Overcast
8:15 PM 39.2 °F 26.5 °F 33.8 °F 81% 29.78 in 10.0 mi NNW 35.7 mph 42.6 mph N/A Rain Light Rain Showers
8:32 PM 39.2 °F 26.8 °F 35.6 °F 87% 29.78 in 10.0 mi NNW 33.4 mph 40.3 mph N/A Rain Light Rain
8:55 PM 38.7 °F 26.5 °F 35.1 °F 87% 29.80 in 10.0 mi NNW 31.1 mph 40.3 mph 0.00 in Rain Light Rain Showers
9:29 PM 37.4 °F 23.6 °F 33.8 °F 87% 29.83 in 10.0 mi NNW 38.0 mph 46.0 mph N/A Rain Light Rain Showers
9:35 PM 35.6 °F 22.1 °F 33.8 °F 93% 29.84 in 7.0 mi North 32.2 mph 46.0 mph N/A Rain , Snow Light Rain
9:55 PM 33.6 °F 21.3 °F 32.2 °F 94% 29.87 in 2.0 mi NNW 23.0 mph 38.0 mph 0.00 in Snow Light Snow
10:26 PM 32.0 °F 17.2 °F 32.0 °F 100% 29.89 in 4.0 mi NNW 32.2 mph 42.6 mph N/A Snow Light Snow
10:37 PM 32.0 °F 17.2 °F 30.2 °F 93% 29.91 in 2.5 mi NNW 32.2 mph 41.4 mph N/A Snow Light Snow
10:41 PM 30.2 °F 14.5 °F 30.2 °F 100% 29.91 in 2.5 mi NNW 33.4 mph 47.2 mph N/A Snow Light Snow
10:46 PM 30.2 °F 15.2 °F 30.2 °F 100% 29.92 in 2.5 mi NNW 29.9 mph 47.2 mph N/A Snow Light Snow
10:49 PM 30.2 °F 14.7 °F 30.2 °F 100% 29.92 in 2.5 mi NNW 32.2 mph 42.6 mph N/A Snow Light Snow
10:50 PM 30.2 °F 14.1 °F 30.2 °F 100% 29.92 in 3.0 mi NNW 35.7 mph 43.7 mph N/A Snow Light Snow
10:54 PM 30.2 °F 14.5 °F 30.2 °F 100% 29.92 in 4.0 mi NNW 33.4 mph 43.7 mph N/A Snow Light Snow
10:55 PM 30.4 °F 14.5 °F 29.8 °F 98% 29.92 in 5.0 mi NNW 34.5 mph 43.7 mph 0.01 in Snow Light Snow
10:56 PM 30.2 °F 14.5 °F 30.2 °F 100% 29.92 in 5.0 mi NNW 33.4 mph 43.7 mph N/A Snow Light Snow
11:14 PM 30.2 °F 15.2 °F 28.4 °F 93% 29.93 in 7.0 mi NNW 29.9 mph 41.4 mph N/A Snow Light Snow
11:22 PM 30.2 °F 15.4 °F 30.2 °F 100% 29.93 in 8.0 mi NNW 28.8 mph 36.8 mph N/A Snow Light Snow
11:29 PM 30.2 °F 15.7 °F 30.2 °F 100% 29.94 in 5.0 mi NNW 27.6 mph 36.8 mph N/A Snow Light Snow
11:33 PM 30.2 °F 15.4 °F 30.2 °F 100% 29.93 in 4.0 mi NNW 28.8 mph 35.7 mph N/A Snow Light Snow
11:37 PM 30.2 °F 15.7 °F 28.4 °F 93% 29.93 in 3.0 mi NNW 27.6 mph 34.5 mph N/A Snow Light Snow
11:42 PM 30.2 °F 15.9 °F 28.4 °F 93% 29.93 in 3.0 mi NNW 26.5 mph 36.8 mph N/A Snow Light Snow
11:45 PM 30.2 °F 16.2 °F 28.4 °F 93% 29.94 in 3.0 mi NNW 25.3 mph 36.8 mph N/A Snow Light Snow
11:55 PM 29.5 °F 15.3 °F 28.9 °F 98% 29.94 in 3.0 mi NNW 25.3 mph 36.8 mph 0.00 in Snow Light Snow